CAS500-3

Last updated on Mon Sep 21 2026 00:02:46 GMT+0000 (Coordinated Universal Time)

1 66655U 25274F 26263.07755329 .00000773 00000+0 89301-4 0 9996 2 66655 97.7430 188.9545 0002832 291.2577 68.8337 14.88332150 44264
UTC large
Height (km)
Speed (km/s)
/
Latitude / Longitude
Inclination (degrees)
Orbital Period (minutes)
Azimuth
Elevation
Range (km)
Doppler Factor

Next 0 passes for location: London (51.5072 / 0.1276)

No passes found over London.
CAS500-3